DW6869 Royal Palm Beach FL US current weather conditions

sailwx.info

Wind from 163

Air temperature 17.8° C
Dewpoint 15.8° C

Last reported at 2020-Feb-25 02:08 UTC.
Time now 2020-Feb-25 03:16 UTC

Location: N 26°48' W 080°18'.
View on Google Maps.

See reports from other nearby stations

  
Tides and Currents Weather Stations Pressure Air Temp Water Temp Dewpoint Dewpoint Depression Visibility Wind Speed Wind Dir Waves Ship Positions
date/time (UTC)wind fromknots sea level pressurealtimeterstation pressurevisibilityair tempwater tempwave heightnotes
2020-Feb-25 02:08 163 17.8
2020-Feb-25 02:03 163 17.8
2020-Feb-25 01:57 163 17.8
2020-Feb-25 01:52 163 17.8
2020-Feb-25 01:47 163 17.8
2020-Feb-25 01:42 163 18.3
2020-Feb-25 01:38 163 18.3
2020-Feb-25 01:32 163 18.3
2020-Feb-25 01:27 163 18.3
2020-Feb-25 01:22 163 18.3
2020-Feb-25 01:18 163 18.9
2020-Feb-25 01:12 163 18.9
2020-Feb-25 01:07 163 18.9
2020-Feb-25 01:02 163 19.4
2020-Feb-25 00:57 163 19.4
2020-Feb-25 00:53 163 19.4
2020-Feb-25 00:47 163 19.4
2020-Feb-25 00:42 163 20.0
2020-Feb-25 00:37 163 20.0
2020-Feb-25 00:32 163 20.0
2020-Feb-25 00:27 163 20.6
2020-Feb-25 00:22 163 20.6
2020-Feb-25 00:17 163 20.6
2020-Feb-25 00:13 163 20.6
2020-Feb-25 00:08 163 21.1
2020-Feb-25 00:02 163 0 gusting 1 21.1
2020-Feb-24 23:57 163 0 gusting 1 21.7
2020-Feb-24 23:52 163 0 gusting 3 21.7
2020-Feb-24 23:47 163 0 gusting 3 21.7
2020-Feb-24 23:42 160 1 gusting 4 21.7
2020-Feb-24 23:37 160 1 gusting 4 22.2
2020-Feb-24 23:32 183 1 gusting 6 22.2
2020-Feb-24 23:28 183 1 gusting 6 22.2
2020-Feb-24 23:23 158 1 gusting 6 22.8
2020-Feb-24 23:18 153 1 gusting 6 22.8
2020-Feb-24 23:12 137 0 gusting 3 22.8
2020-Feb-24 23:08 166 0 gusting 3 22.8
2020-Feb-24 23:03 145 0 gusting 3 23.3
2020-Feb-24 22:57 143 1 gusting 3 23.3
2020-Feb-24 22:53 165 1 gusting 4 23.3
2020-Feb-24 22:48 167 1 gusting 6 23.3
2020-Feb-24 22:43 185 2 gusting 6 23.3
2020-Feb-24 22:37 156 2 gusting 6 23.3
2020-Feb-24 22:32 164 2 gusting 6 23.3
2020-Feb-24 22:28 172 2 gusting 7 23.3
2020-Feb-24 22:22 180 3 gusting 7 23.3
2020-Feb-24 22:18 168 3 gusting 7 23.3
2020-Feb-24 22:12 151 3 gusting 7 23.9
2020-Feb-24 22:09 128 2 gusting 8 23.9
2020-Feb-24 22:03 194 2 gusting 8 23.9
2020-Feb-24 21:58 158 3 gusting 9 23.9
2020-Feb-24 21:53 166 3 gusting 9 23.9
2020-Feb-24 21:48 131 3 gusting 9 23.9
2020-Feb-24 21:42 205 3 gusting 7 23.9
2020-Feb-24 21:38 190 3 gusting 7 24.4
2020-Feb-24 21:32 183 4 gusting 9 24.4
2020-Feb-24 21:27 199 2 gusting 9 24.4
2020-Feb-24 21:23 120 3 gusting 6 23.9
2020-Feb-24 21:17 193 3 gusting 7 24.4
2020-Feb-24 21:13 205 4 gusting 13 24.4
2020-Feb-24 21:07 144 4 gusting 13 25.0
2020-Feb-24 21:02 137 4 gusting 11 25.0
2020-Feb-24 20:57 193 4 gusting 9 25.6
2020-Feb-24 20:52 131 3 gusting 7 25.6
2020-Feb-24 20:48 183 3 gusting 8 25.6
2020-Feb-24 20:43 201 3 gusting 8 25.6
2020-Feb-24 20:37 179 4 gusting 13 25.6
2020-Feb-24 20:32 180 5 gusting 13 25.6
2020-Feb-24 20:29 187 4 gusting 12 25.6
2020-Feb-24 20:23 196 4 gusting 11 26.1
2020-Feb-24 20:17 187 4 gusting 11 25.6
2020-Feb-24 20:12 217 4 gusting 11 25.6
2020-Feb-24 20:07 149 4 gusting 11 25.6
2020-Feb-24 20:03 110 4 gusting 11 25.6
2020-Feb-24 19:57 151 4 gusting 11 25.6
2020-Feb-24 19:52 188 4 gusting 10 25.6
2020-Feb-24 19:48 161 6 gusting 12 25.6
2020-Feb-24 19:43 218 5 gusting 12 25.6
2020-Feb-24 19:38 215 4 gusting 13 25.0
2020-Feb-24 19:32 177 5 gusting 13 25.0
2020-Feb-24 19:28 183 4 gusting 13 24.4
2020-Feb-24 19:23 202 4 gusting 13 25.0
2020-Feb-24 19:17 155 4 gusting 11 25.0
2020-Feb-24 19:12 171 4 gusting 8 25.6
2020-Feb-24 19:07 155 3 gusting 8 25.6
2020-Feb-24 19:03 160 3 gusting 10 26.1
2020-Feb-24 18:57 133 4 gusting 10 26.1
2020-Feb-24 18:52 185 4 gusting 9 25.6
2020-Feb-24 18:48 160 3 gusting 9 26.1
2020-Feb-24 18:42 150 3 gusting 11 25.6
2020-Feb-24 18:38 161 4 gusting 11 25.0
2020-Feb-24 18:08 191 4 gusting 10 25.6
2020-Feb-24 18:02 164 4 gusting 12 25.6
2020-Feb-24 17:57 171 5 gusting 12 25.6
2020-Feb-24 17:52 196 5 gusting 11 25.6
2020-Feb-24 17:47 234 4 gusting 10 25.6
2020-Feb-24 17:42 158 4 gusting 11 25.0
2020-Feb-24 17:37 196 3 gusting 11 25.0
2020-Feb-24 17:33 126 3 gusting 11 25.0
2020-Feb-24 17:27 226 4 gusting 11 25.0
2020-Feb-24 17:22 187 4 gusting 10 24.4
2020-Feb-24 17:17 207 4 gusting 15 24.4
2020-Feb-24 17:12 192 5 gusting 15 24.4
2020-Feb-24 17:07 172 5 gusting 12 24.4
2020-Feb-24 17:02 203 4 gusting 8 25.0
2020-Feb-24 16:58 106 3 gusting 10 25.0
2020-Feb-24 16:53 162 4 gusting 11 25.0
2020-Feb-24 16:48 121 5 gusting 11 25.0
2020-Feb-24 16:43 180 4 gusting 12 24.4
2020-Feb-24 16:37 201 4 gusting 12 24.4
2020-Feb-24 16:33 218 5 gusting 14 24.4
2020-Feb-24 16:28 170 5 gusting 14 25.0
2020-Feb-24 16:22 126 3 gusting 8 25.0
2020-Feb-24 16:18 148 3 gusting 7 25.6
2020-Feb-24 16:12 135 3 gusting 8 24.4
2020-Feb-24 16:07 158 4 gusting 9 23.9
2020-Feb-24 16:02 118 3 gusting 9 23.3
2020-Feb-24 15:58 164 3 gusting 8 23.3
2020-Feb-24 15:53 206 3 gusting 8 23.9
2020-Feb-24 15:47 122 3 gusting 10 24.4
2020-Feb-24 15:42 153 4 gusting 10 24.4
2020-Feb-24 15:37 183 4 gusting 11 23.9
2020-Feb-24 15:32 147 4 gusting 11 23.9
2020-Feb-24 15:28 194 4 gusting 10 23.9
2020-Feb-24 15:23 201 4 gusting 11 23.9
2020-Feb-24 15:17 145 4 gusting 11 23.9
2020-Feb-24 15:12 136 3 gusting 9 23.9
2020-Feb-24 15:07 172 3 gusting 12 23.9
2020-Feb-24 15:02 152 4 gusting 12 23.9
2020-Feb-24 14:57 204 3 gusting 9 23.9
2020-Feb-24 14:52 139 2 gusting 9 23.9
2020-Feb-24 14:49 190 2 gusting 9 23.9
2020-Feb-24 14:42 081 1 gusting 9 23.3
2020-Feb-24 14:38 135 1 gusting 4 22.8
2020-Feb-24 14:33 195 2 gusting 8 23.3
2020-Feb-24 14:28 155 2 gusting 8 22.8
2020-Feb-24 14:23 041 2 gusting 5 22.8
2020-Feb-24 14:17 191 1 gusting 5 22.2
2020-Feb-24 14:13 183 1 gusting 3 21.7
2020-Feb-24 14:07 117 0 gusting 3 21.7
2020-Feb-24 14:02 210 0 gusting 3 20.6
2020-Feb-24 13:57 150 0 gusting 2 20.0
2020-Feb-24 13:52 091 0 gusting 2 19.4
2020-Feb-24 13:48 204 0 gusting 3 19.4
2020-Feb-24 13:42 205 0 gusting 3 18.9
2020-Feb-24 13:37 170 0 gusting 2 18.3
2020-Feb-24 13:32 205 0 gusting 2 17.8
2020-Feb-24 13:27 126 17.2
2020-Feb-24 13:22 126 16.7
2020-Feb-24 13:17 126 16.7
2020-Feb-24 13:12 127 16.1
2020-Feb-24 13:07 126 15.6
2020-Feb-24 13:02 126 15.6
2020-Feb-24 12:57 126 0 gusting 1 15.0
2020-Feb-24 12:52 126 15.0
2020-Feb-24 12:47 126 14.4
2020-Feb-24 12:43 127 13.9
2020-Feb-24 12:37 127 13.3
2020-Feb-24 12:32 126 13.3
2020-Feb-24 12:27 126 13.3
2020-Feb-24 12:22 126 13.3
2020-Feb-24 12:17 126 13.3
2020-Feb-24 12:12 127 13.3
2020-Feb-24 12:07 126 13.3
2020-Feb-24 12:02 126 13.3
2020-Feb-24 11:56 127 13.3
2020-Feb-24 11:51 126 13.3
2020-Feb-24 11:46 126 13.3
2020-Feb-24 11:41 126 13.3
2020-Feb-24 11:36 127 13.3
2020-Feb-24 11:31 126 13.3
2020-Feb-24 11:26 126 13.3
2020-Feb-24 11:22 126 13.3
2020-Feb-24 11:16 126 13.3
2020-Feb-24 11:11 127 13.9
2020-Feb-24 11:06 126 0 gusting 0 13.9
2020-Feb-24 11:01 126 13.9
2020-Feb-24 10:56 126 13.9
2020-Feb-24 10:51 127 13.9
2020-Feb-24 10:46 126 13.9
2020-Feb-24 10:41 127 13.9
2020-Feb-24 10:36 126 14.4
2020-Feb-24 10:31 126 14.4
2020-Feb-24 10:26 127 14.4
2020-Feb-24 10:21 126 14.4
2020-Feb-24 10:16 126 14.4
2020-Feb-24 10:11 126 14.4
2020-Feb-24 10:06 126 14.4
2020-Feb-24 10:01 127 14.4
2020-Feb-24 09:56 126 14.4
2020-Feb-24 09:51 126 14.4
2020-Feb-24 09:46 127 13.9
2020-Feb-24 09:41 126 14.4
2020-Feb-24 09:36 127 14.4
2020-Feb-24 09:31 126 14.4
2020-Feb-24 09:26 126 14.4
2020-Feb-24 09:21 127 14.4
2020-Feb-24 09:16 126 13.9
2020-Feb-24 09:11 127 13.9
2020-Feb-24 09:06 126 13.9
2020-Feb-24 09:01 126 13.9
2020-Feb-24 08:56 127 13.9
2020-Feb-24 08:51 126 13.9
2020-Feb-24 08:46 127 13.9
2020-Feb-24 08:36 127 13.9
2020-Feb-24 08:31 127 13.3
2020-Feb-24 08:26 126 13.3
2020-Feb-24 08:21 126 13.3
2020-Feb-24 08:16 126 13.3
2020-Feb-24 08:11 126 13.3
2020-Feb-24 08:06 126 13.3
2020-Feb-24 08:01 126 13.3
2020-Feb-24 07:56 126 13.3
2020-Feb-24 07:51 126 13.3
2020-Feb-24 07:46 126 13.3
2020-Feb-24 07:41 126 13.3
2020-Feb-24 07:36 127 13.3
2020-Feb-24 07:31 127 13.3
2020-Feb-24 07:26 126 13.3
2020-Feb-24 07:21 126 13.3
2020-Feb-24 07:16 126 13.3
2020-Feb-24 07:11 126 13.3
2020-Feb-24 07:06 126 13.3
2020-Feb-24 07:01 127 13.3
2020-Feb-24 06:56 126 0 gusting 1 13.3
2020-Feb-24 06:51 126 0 gusting 1 13.3
2020-Feb-24 06:46 126 13.3
2020-Feb-24 06:41 126 13.3
2020-Feb-24 06:36 126 13.3
2020-Feb-24 06:31 126 13.3
2020-Feb-24 06:26 126 13.3
2020-Feb-24 06:21 126 13.3
2020-Feb-24 06:16 126 13.3
2020-Feb-24 06:11 127 13.9
2020-Feb-24 06:06 126 13.9
2020-Feb-24 06:01 126 13.9
2020-Feb-24 05:56 127 13.3
2020-Feb-24 05:51 127 13.3
2020-Feb-24 05:46 127 13.9
2020-Feb-24 05:41 126 13.9
2020-Feb-24 05:36 127 13.9
2020-Feb-24 05:31 126 13.9
2020-Feb-24 05:26 126 13.9
2020-Feb-24 05:21 126 13.9
2020-Feb-24 05:16 126 13.9
2020-Feb-24 05:12 127 13.9
2020-Feb-24 05:06 127 13.9
2020-Feb-24 05:01 126 13.9
2020-Feb-24 04:56 127 13.9
2020-Feb-24 04:51 126 0 gusting 0 13.9
2020-Feb-24 04:46 126 13.9
2020-Feb-24 04:41 126 13.9
2020-Feb-24 04:36 127 13.9
2020-Feb-24 04:31 127 13.9
2020-Feb-24 04:26 126 13.9
2020-Feb-24 04:21 126 13.9
2020-Feb-24 04:16 126 13.9
2020-Feb-24 04:11 127 13.9
2020-Feb-24 04:06 127 13.9
2020-Feb-24 04:01 127 0 gusting 0 13.9
2020-Feb-24 03:56 127 0 gusting 0 14.4
2020-Feb-24 03:51 126 14.4
2020-Feb-24 03:46 126 14.4
2020-Feb-24 03:41 126 14.4
2020-Feb-24 03:36 126 14.4
2020-Feb-24 03:31 126 14.4
2020-Feb-24 03:26 127 14.4
2020-Feb-24 03:21 126 14.4
2020-Feb-24 03:16 126 14.4
2020-Feb-24 03:11 126 14.4
2020-Feb-24 03:06 126 14.4
2020-Feb-24 03:01 126 15.0
2020-Feb-24 02:56 126 15.0
2020-Feb-24 02:51 126 15.0
2020-Feb-24 02:46 126 15.0
2020-Feb-24 02:41 127 15.0
2020-Feb-24 02:36 127 15.0
2020-Feb-24 02:31 126 15.0
2020-Feb-24 02:26 126 15.0
2020-Feb-24 02:21 126 15.6
2020-Feb-24 02:16 127 0 gusting 0 15.6
2020-Feb-24 02:11 126 0 gusting 0 15.6
2020-Feb-24 02:06 126 15.6
2020-Feb-24 02:01 126 15.6
2020-Feb-24 01:56 126 15.6
2020-Feb-24 01:51 126 15.6
2020-Feb-24 01:46 126 15.6
2020-Feb-24 01:41 126 15.6
2020-Feb-24 01:36 127 15.6
2020-Feb-24 01:31 127 16.1
2020-Feb-24 01:26 127 16.1
2020-Feb-24 01:21 126 16.1
2020-Feb-24 01:16 126 16.7
2020-Feb-24 01:11 126 16.7
2020-Feb-24 01:06 126 16.7
2020-Feb-24 01:01 126 16.7
2020-Feb-24 00:56 126 16.7
2020-Feb-24 00:51 127 0 gusting 0 17.2
2020-Feb-24 00:46 127 17.2
2020-Feb-24 00:41 126 17.2
2020-Feb-24 00:36 126 17.8
2020-Feb-24 00:31 126 17.8
2020-Feb-24 00:26 127 17.8
2020-Feb-24 00:21 126 18.3
2020-Feb-24 00:16 127 18.3
2020-Feb-24 00:11 126 18.3
2020-Feb-24 00:06 126 18.9
2020-Feb-24 00:01 127 18.9
2020-Feb-23 23:56 126 18.9
2020-Feb-23 23:51 127 19.4
2020-Feb-23 23:46 126 19.4
2020-Feb-23 23:41 126 0 gusting 1 19.4
2020-Feb-23 23:36 127 0 gusting 1 19.4
2020-Feb-23 23:33 127 0 gusting 1 20.0
2020-Feb-23 23:26 126 0 gusting 2 20.0
2020-Feb-23 23:22 126 0 gusting 2 20.0
2020-Feb-23 23:16 195 0 gusting 2 20.6
2020-Feb-23 23:12 113 0 gusting 2 20.6
2020-Feb-23 23:06 113 0 gusting 2 20.6
2020-Feb-23 23:01 116 0 gusting 2 21.1
2020-Feb-23 22:57 122 0 gusting 2 21.1
2020-Feb-23 22:51 106 0 gusting 1 21.1
2020-Feb-23 22:46 106 0 gusting 3 21.7
2020-Feb-23 22:41 104 1 gusting 3 21.7
2020-Feb-23 22:36 121 1 gusting 6 21.7
2020-Feb-23 22:31 034 1 gusting 6 21.7
2020-Feb-23 22:27 062 1 gusting 5 21.7
2020-Feb-23 22:21 131 1 gusting 6 21.7
2020-Feb-23 22:16 170 1 gusting 6 21.7
2020-Feb-23 22:11 147 1 gusting 5 21.7
2020-Feb-23 22:06 197 0 gusting 3 21.7
2020-Feb-23 22:01 010 1 gusting 6 22.2
2020-Feb-23 21:56 102 2 gusting 7 22.2
2020-Feb-23 21:51 214 2 gusting 7 22.8
2020-Feb-23 21:47 144 2 gusting 6 22.8
2020-Feb-23 21:41 089 2 gusting 7 23.3
2020-Feb-23 21:36 23.3
2020-Feb-23 21:31 164 2 gusting 6 23.3
2020-Feb-23 21:26 082 2 gusting 6 23.9
2020-Feb-23 21:21 183 2 gusting 6 23.9
2020-Feb-23 21:18 118 2 gusting 6 23.9
2020-Feb-23 21:12 351 2 gusting 6 24.4
2020-Feb-23 21:06 036 2 gusting 6 24.4
2020-Feb-23 21:02 070 2 gusting 10 24.4
2020-Feb-23 20:57 317 3 gusting 10 24.4
2020-Feb-23 20:51 093 3 gusting 9 24.4
2020-Feb-23 20:46 139 3 gusting 9 24.4
2020-Feb-23 20:41 051 2 gusting 7 23.9
2020-Feb-23 20:36 151 2 gusting 7 23.9
2020-Feb-23 20:32 131 1 gusting 6 23.3
2020-Feb-23 20:26 065 1 gusting 6 23.3
2020-Feb-23 20:21 110 2 gusting 6 23.3
2020-Feb-23 20:16 145 2 gusting 8 23.9
2020-Feb-23 20:11 118 2 gusting 8 24.4
2020-Feb-23 20:06 107 2 gusting 8 24.4
2020-Feb-23 20:02 176 3 gusting 11 25.0
2020-Feb-23 19:57 099 3 gusting 11 25.0
2020-Feb-23 19:51 062 2 gusting 6 25.0
2020-Feb-23 19:46 125 2 gusting 7 25.0
2020-Feb-23 19:41 185 2 gusting 7 25.0
2020-Feb-23 19:36 180 2 gusting 6 24.4
2020-Feb-23 19:32 095 2 gusting 7 24.4
2020-Feb-23 19:26 016 2 gusting 7 25.0
2020-Feb-23 19:21 010 2 gusting 6 25.0
2020-Feb-23 19:17 031 2 gusting 7 25.0
2020-Feb-23 19:11 132 2 gusting 7 24.4
2020-Feb-23 19:08 112 3 gusting 7 24.4
2020-Feb-23 19:01 110 3 gusting 7 24.4
2020-Feb-23 18:56 030 3 gusting 8 24.4
2020-Feb-23 18:51 020 3 gusting 8 24.4
2020-Feb-23 18:46 168 2 gusting 7 24.4
2020-Feb-23 18:42 102 3 gusting 7 24.4
2020-Feb-23 18:36 005 3 gusting 9 24.4
2020-Feb-23 18:31 021 3 gusting 9 25.0
2020-Feb-23 18:26 122 3 gusting 8 25.0
2020-Feb-23 18:21 176 3 gusting 8 25.0
2020-Feb-23 18:16 116 2 gusting 8 25.0
2020-Feb-23 18:11 103 2 gusting 7 25.0
2020-Feb-23 18:06 156 3 gusting 7 24.4
2020-Feb-23 18:02 093 2 gusting 6 24.4
2020-Feb-23 17:57 121 2 gusting 6 24.4
2020-Feb-23 17:51 058 3 gusting 7 24.4
2020-Feb-23 17:46 070 3 gusting 8 24.4
2020-Feb-23 17:41 040 2 gusting 8 24.4
2020-Feb-23 17:36 116 2 gusting 6 25.0
2020-Feb-23 17:31 160 3 gusting 7 24.4
2020-Feb-23 17:26 122 3 gusting 7 24.4
2020-Feb-23 17:21 022 2 gusting 6 24.4
2020-Feb-23 17:17 070 2 gusting 6 24.4
2020-Feb-23 17:11 017 2 gusting 6 24.4
2020-Feb-23 17:07 022 3 gusting 7 24.4
2020-Feb-23 17:01 014 3 gusting 8 24.4
2020-Feb-23 16:56 041 3 gusting 8 24.4
2020-Feb-23 16:51 043 2 gusting 8 24.4
2020-Feb-23 16:46 023 2 gusting 6 24.4
2020-Feb-23 16:41 190 2 gusting 8 24.4
2020-Feb-23 16:36 074 2 gusting 8 23.9
2020-Feb-23 16:31 051 3 gusting 12 23.9
2020-Feb-23 16:27 136 2 gusting 12 24.4
2020-Feb-23 16:21 061 2 gusting 6 23.9
2020-Feb-23 16:17 037 3 gusting 7 23.3
2020-Feb-23 16:11 110 3 gusting 7 23.3
2020-Feb-23 16:06 017 2 gusting 7 22.8
2020-Feb-23 16:01 347 2 gusting 8 22.8
2020-Feb-23 15:56 122 2 gusting 8 22.8
2020-Feb-23 15:51 099 2 gusting 6 22.8
2020-Feb-23 15:46 225 3 gusting 7 22.8
2020-Feb-23 15:41 058 3 gusting 8 22.8
2020-Feb-23 15:37 035 3 gusting 8 23.3
2020-Feb-23 15:31 093 2 gusting 8 23.3
2020-Feb-23 15:26 145 2 gusting 9 22.8
2020-Feb-23 15:21 069 3 gusting 9 22.8
2020-Feb-23 15:16 145 3 gusting 8 22.2
2020-Feb-23 15:11 005 3 gusting 8 22.2
2020-Feb-23 15:06 076 3 gusting 9 22.2
2020-Feb-23 15:01 020 3 gusting 9 22.2
2020-Feb-23 14:56 070 3 gusting 7 21.7
2020-Feb-23 14:51 036 2 gusting 7 21.7
2020-Feb-23 14:46 240 2 gusting 8 21.1
2020-Feb-23 14:41 057 2 gusting 8 21.1
2020-Feb-23 14:36 039 1 gusting 6 20.6
2020-Feb-23 14:31 027 1 gusting 4 20.6
2020-Feb-23 14:26 034 0 gusting 3 20.6
2020-Feb-23 14:16 051 1 gusting 3 19.4
2020-Feb-23 14:11 029 1 gusting 4 18.9
2020-Feb-23 14:06 028 1 gusting 4 18.3
2020-Feb-23 14:01 023 1 gusting 3 18.3
2020-Feb-23 13:56 348 1 gusting 3 17.8
2020-Feb-23 13:51 331 1 gusting 3 17.8
2020-Feb-23 13:46 316 1 gusting 3 17.2
2020-Feb-23 13:41 342 1 gusting 3 17.2
2020-Feb-23 13:35 037 1 gusting 3 16.7
2020-Feb-23 13:30 341 1 gusting 3 16.7
2020-Feb-23 13:26 343 1 gusting 4 16.1
2020-Feb-23 13:22 349 1 gusting 4 16.1
2020-Feb-23 13:15 353 1 gusting 2 16.1
2020-Feb-23 13:11 353 1 gusting 3 15.6
2020-Feb-23 13:05 349 1 gusting 3 15.6
2020-Feb-23 13:00 005 1 gusting 4 15.6
2020-Feb-23 12:55 351 2 gusting 4 15.6
2020-Feb-23 12:51 335 1 gusting 4 15.0
2020-Feb-23 12:45 330 1 gusting 3 15.0
2020-Feb-23 12:41 342 1 gusting 3 15.0
2020-Feb-23 12:36 330 0 gusting 2 15.0
2020-Feb-23 12:30 330 1 gusting 3 15.0
2020-Feb-23 12:25 329 1 gusting 3 15.0
2020-Feb-23 12:20 337 1 gusting 3 15.0
2020-Feb-23 12:15 338 1 gusting 4 15.0
2020-Feb-23 12:10 338 2 gusting 4 15.0
2020-Feb-23 12:05 330 1 gusting 4 15.0
2020-Feb-23 12:01 326 1 gusting 3 15.0
2020-Feb-23 11:55 325 1 gusting 3 15.0
2020-Feb-23 11:50 325 1 gusting 2 15.0
2020-Feb-23 11:46 324 1 gusting 2 15.0
2020-Feb-23 11:40 324 0 gusting 2 15.0
2020-Feb-23 11:35 324 15.0
2020-Feb-23 11:30 324 15.0
2020-Feb-23 11:25 324 15.0
2020-Feb-23 11:20 324 15.0
2020-Feb-23 11:15 324 0 gusting 1 15.6
2020-Feb-23 11:10 324 0 gusting 1 15.6
2020-Feb-23 11:05 324 0 gusting 1 15.6
2020-Feb-23 11:00 324 15.6
2020-Feb-23 10:55 324 0 gusting 1 15.6
2020-Feb-23 10:50 324 0 gusting 1 15.6
2020-Feb-23 10:45 324 0 gusting 1 15.6
2020-Feb-23 10:40 324 15.6
2020-Feb-23 10:35 324 15.6
2020-Feb-23 10:30 324 15.6
2020-Feb-23 10:25 324 15.6
2020-Feb-23 10:20 324 15.6
2020-Feb-23 10:15 324 15.6
2020-Feb-23 10:10 324 0 gusting 1 15.6
2020-Feb-23 10:06 324 0 gusting 1 15.6
2020-Feb-23 10:00 324 0 gusting 1 15.6
2020-Feb-23 09:55 324 15.6
2020-Feb-23 09:50 324 15.6
2020-Feb-23 09:45 324 15.6
2020-Feb-23 09:40 324 0 gusting 1 15.6
2020-Feb-23 09:35 324 0 gusting 1 15.6
2020-Feb-23 09:30 324 15.6
2020-Feb-23 09:25 325 15.6
2020-Feb-23 09:20 325 0 gusting 2 15.6
2020-Feb-23 09:15 324 1 gusting 2 15.6
2020-Feb-23 09:10 326 1 gusting 3 16.1
2020-Feb-23 09:05 330 1 gusting 3 16.1
2020-Feb-23 09:00 331 1 gusting 3 16.1
2020-Feb-23 08:55 334 1 gusting 4 16.1
2020-Feb-23 08:50 336 1 gusting 4 16.1
2020-Feb-23 08:45 325 0 gusting 2 16.1
2020-Feb-23 08:40 321 0 gusting 2 16.1
2020-Feb-23 08:35 340 1 gusting 2 16.1
2020-Feb-23 08:30 341 0 gusting 2 16.1
2020-Feb-23 08:25 341 16.1
2020-Feb-23 08:20 341 0 gusting 2 16.1
2020-Feb-23 08:15 341 0 gusting 2 16.1
2020-Feb-23 08:10 341 0 gusting 1 16.1
2020-Feb-23 08:05 341 0 gusting 1 16.1
2020-Feb-23 08:00 341 16.1
2020-Feb-23 07:55 341 16.1
2020-Feb-23 07:50 341 16.1
2020-Feb-23 07:45 341 16.1
2020-Feb-23 07:40 341 16.1
2020-Feb-23 07:35 341 16.1
2020-Feb-23 07:30 341 16.1
2020-Feb-23 07:25 341 16.1
2020-Feb-23 07:20 341 0 gusting 1 16.7
2020-Feb-23 07:15 344 0 gusting 2 16.7
2020-Feb-23 07:10 343 0 gusting 2 16.7
2020-Feb-23 07:05 322 0 gusting 2 16.7
2020-Feb-23 07:00 321 1 gusting 3 16.7
2020-Feb-23 06:55 321 2 gusting 4 16.7
2020-Feb-23 06:50 331 1 gusting 4 16.7
2020-Feb-23 06:45 333 1 gusting 3 16.7
2020-Feb-23 06:40 332 1 gusting 2 16.7
2020-Feb-23 06:35 005 0 gusting 1 16.7
2020-Feb-23 06:30 005 0 gusting 1 16.7
2020-Feb-23 06:25 042 0 gusting 2 16.7
2020-Feb-23 06:20 042 1 gusting 2 16.7
2020-Feb-23 06:15 042 1 gusting 5 16.7
2020-Feb-23 06:10 332 1 gusting 5 16.7
2020-Feb-23 06:05 058 0 gusting 2 16.7
2020-Feb-23 06:00 061 0 gusting 1 16.7
2020-Feb-23 05:55 061 16.7
2020-Feb-23 05:50 061 0 gusting 1 16.7
2020-Feb-23 05:45 061 0 gusting 2 16.7
2020-Feb-23 05:40 061 0 gusting 3 16.7
2020-Feb-23 05:35 354 1 gusting 3 16.7
2020-Feb-23 05:30 16.7
2020-Feb-23 05:25 030 1 gusting 6 16.7
2020-Feb-23 05:20 356 1 gusting 3 16.7
2020-Feb-23 05:15 024 1 gusting 3 16.7
2020-Feb-23 05:10 028 0 gusting 2 16.7
2020-Feb-23 05:05 058 1 gusting 2 16.7
2020-Feb-23 05:00 056 1 gusting 3 16.7
2020-Feb-23 04:55 031 2 gusting 4 16.7
2020-Feb-23 04:50 024 1 gusting 4 16.7
2020-Feb-23 04:45 035 1 gusting 4 16.7
2020-Feb-23 04:40 354 1 gusting 2 16.7
2020-Feb-23 04:35 343 1 gusting 3 16.7
2020-Feb-23 04:30 344 2 gusting 4 16.7
2020-Feb-23 04:25 16.7
2020-Feb-23 04:20 319 2 gusting 5 16.7
2020-Feb-23 04:15 332 2 gusting 5 16.1
2020-Feb-23 04:10 312 1 gusting 3 16.1
2020-Feb-23 04:05 16.1
2020-Feb-23 04:00 037 0 gusting 3 16.1
2020-Feb-23 03:55 037 0 gusting 3 16.1
2020-Feb-23 03:50 016 1 gusting 3 16.1
2020-Feb-23 03:45 015 0 gusting 3 16.1
2020-Feb-23 03:40 336 0 gusting 2 16.1
2020-Feb-23 03:35 328 16.1
2020-Feb-23 03:30 328 0 gusting 2 16.1
2020-Feb-23 03:25 328 0 gusting 2 16.1
2020-Feb-23 03:20 328 1 gusting 3 16.1
2020-Feb-23 03:15 328 1 gusting 3 16.1
2020-Feb-23 03:10 328 1 gusting 3 16.1
2020-Feb-23 03:05 336 1 gusting 2 16.7
2020-Feb-23 03:00 336 1 gusting 3 16.7